Regional Weather Roundup
Issued by NWS

Home | Current Version | Previous Version | Graphics & Text | Print | Product List | Glossary On
Versions: 1 2 3 4 5 6 7 8 9 10 11 12 13 14 15 16 17 18 19 20 21 22 23 24 25 26 27 28 29 30 31 32 33 34 35 36 37 38 39 40 41 42 43 44 45 46 47 48 49 50
000
ASUS45 KCYS 280310
RWRWY

WYOMING REGIONAL WEATHER ROUNDUP
NATIONAL WEATHER SERVICE CHEYENNE WY
900 PM MDT THU APR 27 2017

NOTE:  "FAIR" INDICATES FEW OR NO CLOUDS BELOW 12,000 FEET
WITH NO SIGNIFICANT WEATHER AND/OR OBSTRUCTIONS TO VISIBILITY.

WYZ001-280400-
YELLOWSTONE NATIONAL PARK

CITY           SKY/WX    TMP DP  RH WIND       PRES   REMARKS
LK YELLOWSTONE   N/A     25  22  88 VRB6      29.76R WCI  18
W YELLOWSTONE  NOT AVBL

$$
WYZ002>013-054>058-071-098>099-280400-
NORTHERN WYOMING

CITY           SKY/WX    TMP DP  RH WIND       PRES   REMARKS
JACKSON        CLOUDY    32  28  86 W5        29.76R WCI  27
CODY           MIX PCPN  36  33  89 N15       29.74R WCI  27
GREYBULL       CLOUDY    45  33  63 NW26G37   29.63R
WORLAND        CLOUDY    43  35  73 NW21G29   29.63R
SHERIDAN       FLURRIES  33  32  96 W7        29.73R WCI  27
BUFFALO        LGT SNOW  35  31  85 NW18      29.69R FOG     WCI  24
GILLETTE       SNOW      33  33 100 N3        29.67R
HULETT         CLOUDY    37  32  81 E10G16    29.70R WCI  30
NEWCASTLE      LGT RAIN  36  34  93 NE8       29.67R WCI  29

$$
WYZ014>020-022>026-101>103-280400-
CENTRAL WYOMING

CITY           SKY/WX    TMP DP  RH WIND       PRES   REMARKS
BIG PINEY      FAIR      30  21  69 NW14      29.74R WCI  19
PINEDALE       MOCLDY    32  23  69 NW16      29.73R WCI  21
DUBOIS         CLOUDY    32  21  64 W20       29.69R WCI  20
LANDER         CLOUDY    37  28  70 NW13      29.66R WCI  29
RIVERTON       CLOUDY    35  32  88 NW8       29.66R WCI  29
CASPER         CLOUDY    34  33  96 N6        29.63R WCI  29
DOUGLAS        CLOUDY    38  35  89 E9        29.61R WCI  31

$$
WYZ021-027>030-104>119-280400-
SOUTHERN WYOMING

CITY           SKY/WX    TMP DP  RH WIND       PRES   REMARKS
EVANSTON       CLOUDY    29  23  78 W8        29.81R WCI  21
KEMMERER         N/A     30  23  74 W12G17    29.77R WCI  21
ROCK SPRINGS   CLOUDY    35  19  52 W18G28    29.74R WCI  24
DIXON            N/A     36  25  63 W6        29.75R WCI  31
RAWLINS        LGT SNOW  32  27  81 W21G37    29.67R WCI  20
SARATOGA       CLOUDY    34  27  75 NW5       29.70R WCI  30
LARAMIE        MOCLDY    29  22  75 W6        29.62S WCI  23
CHEYENNE       FAIR      41  23  48 W15       29.61R
TORRINGTON     LGT RAIN  42  41  96 CALM      29.59R
PINE BLUFFS    FAIR      36  36 100 CALM      29.62R

$$



USA.gov is the U.S. government's official web portal to all federal, state and local government web resources and services.